Regional Weather Roundup
Issued by NWS

Home | Current Version | Previous Version | Graphics & Text | Print | Product List | Glossary On
Versions: 1 2 3 4 5 6 7 8 9 10 11 12 13 14 15 16 17 18 19 20 21 22 23 24 25 26 27 28 29 30 31 32 33 34 35 36 37 38 39 40 41 42 43 44 45 46 47 48 49 50
000
ASUS43 KIND 062209
RWRIN

WEATHER ROUNDUP FOR INDIANA
NATIONAL WEATHER SERVICE INDIANAPOLIS IN
600 PM EDT WED MAY 06 2015

NOTE: "FAIR" INDICATES FEW OR NO CLOUDS BELOW 12,000 FEET WITH NO
SIGNIFICANT WEATHER AND/OR OBSTRUCTIONS TO VISIBILITY.

* - STATION DOES NOT REPORT WEATHER SUCH AS PRECIPITATION OR FOG.

+ - STATION NOT QUALITY CONTROLLED BY THE NATIONAL WEATHER SERVICE.
    USE DATA WITH CAUTION...ESPECIALLY DEWPOINT AND RELATIVE
    HUMIDITY OBSERVATIONS.

INZ001>003-010>013-019-020-062300-
NORTHWEST INDIANA

CITY           SKY/WX    TMP DP  RH WIND       PRES   REMARKS
GARY /AIRPORT/ MOSUNNY   63 N/A N/A NE7       30.10F HAZE
KNOX *+        MOSUNNY   82  16   8 S5        30.08F
LA PORTE +     SUNNY     83  56  39 SW3       30.10F
MICHIGAN CITY+ MOSUNNY   79  55  44 N6        30.10S
MONTICELLO +   MOSUNNY   81  56  42 SE6       30.08S
VALPARAISO     PTSUNNY   82  55  39 E3        30.09F

$$

LMZ046-743>745-062300-
SOUTHERN LAKE MICHIGAN

STATION/POSITION TIME  TEMP    WIND        PRES    WAVE
                       AIR SEA DIR/SP/G            HT
                 (UTC) (F)     (DEG/KT/KT) (MB)    (FT)
BURNS HARBOR     2200   57      80/ 13/ 14 1019.3F
MICHIGAN CITY    2200   56      40/ 12/ 13   N/A
5NW MICH CITY    2200   54 54   80/  8/ 10   N/A     1

$$

INZ004-005-014>016-021>024-062300-
NORTH CENTRAL INDIANA

CITY           SKY/WX    TMP DP  RH WIND       PRES   REMARKS
ELKHART        MOSUNNY   81  55  41 SE5       30.12F
GOSHEN         MOSUNNY   81  61  50 S6        30.11F
LOGANSPORT +   SUNNY     82  43  24 CALM      30.11S
PERU/GRISSOM   SUNNY     83  56  39 NE1       30.09F
ROCHESTER +    SUNNY     84  52  32 SE3       30.10F
SOUTH BEND     PTSUNNY   80  58  46 SE8       30.11F
WARSAW +       SUNNY     81  57  44 CALM      30.12S

$$

INZ006>009-017-018-025>027-062300-
NORTHEAST INDIANA

CITY           SKY/WX    TMP DP  RH WIND       PRES   REMARKS
ANGOLA *+      SUNNY     75  63  64 SE3       30.15F
AUBURN +       SUNNY     77  61  57 E3        30.15F
FORT WAYNE     MOSUNNY   82  60  47 VRB3      30.13F
HUNTINGTON +   MOSUNNY   80  55  41 S5        30.12F

$$

INZ028-029-035-036-043>045-051>053-062300-
WEST CENTRAL INDIANA

CITY           SKY/WX    TMP DP  RH WIND       PRES   REMARKS
CRAWFORDSVL +  MOSUNNY   82  37  20 S3        30.09F
GREENCASTLE +  SUNNY     81  45  28 S3        30.10F
LAFAYETTE      MOSUNNY   82  48  30 SW8       30.08F
TERRE HAUTE    MOSUNNY   83  53  35 S8        30.08F

$$

INZ030>032-037>040-046>048-054>057-064-065-062300-
CENTRAL INDIANA

CITY           SKY/WX    TMP DP  RH WIND       PRES   REMARKS
CP ATTERBURY + MOSUNNY   82  50  32 CALM      30.11F HAZE
COLUMBUS       CLOUDY    84  48  28 E5        30.11F
FISHERS *+     MOSUNNY   81  57  44 CALM      30.10F
FRANKFORT +    SUNNY     81  52  36 CALM      30.12F
GREENWOOD *+   MOSUNNY   84  50  30 SE6       30.11F
INDIANAPOLIS   MOSUNNY   82  52  35 SW3       30.10F
-EAGLE CREEK   MOSUNNY   82  50  32 S5        30.10F
KOKOMO *+      SUNNY     81  54  39 SE6       30.10S
MARION +       MOSUNNY   83  47  27 S3        30.12F
MT COMFORT *+  SUNNY     84  25  11 S7        30.11F
SHELBYVILLE    SUNNY     87  51  28 N3        30.10F
ZIONSVILLE +   MOSUNNY   84  46  26 SW3       30.11F

$$

INZ033-034-041-042-049-050-058-059-062300-
EAST CENTRAL INDIANA

CITY           SKY/WX    TMP DP  RH WIND       PRES   REMARKS
MUNCIE         PTSUNNY   83  50  31 CALM      30.12F

$$

INZ060-061-067>069-081>083-085>088-062300-
SOUTHWEST INDIANA

CITY           SKY/WX    TMP DP  RH WIND       PRES   REMARKS
EVANSVILLE     MOSUNNY   85  54  34 SE7       30.08F
HUNTINGBURG *+ SUNNY     82  55  39 SE8       30.10F
WASHINGTON +   SUNNY     85  43  22 S6        30.07F

$$

INZ062-063-066-070>080-084-089>092-062300-
SOUTH CENTRAL AND SOUTHEAST INDIANA

CITY           SKY/WX    TMP DP  RH WIND       PRES   REMARKS
BLOOMINGTON    SUNNY     84  50  30 VRB3      30.10F
MADISON *+     CLOUDY    82  46  28 SE3       30.13S
NORTH VERNON + MOSUNNY   84  57  39 CALM      30.11F
SEYMOUR +      SUNNY     86  54  32 CALM      30.10F

$$




USA.gov is the U.S. government's official web portal to all federal, state and local government web resources and services.